GW0115 Weather Reports


Display with metric or nautical units.
time (UTC)temp
F
wind
direction
speed
MPH
gust
MPH
rain 1hr
in
rain 24hr
in
rain mn
in
humidity
%
barometer
mb
20260507191554 56 0 5.0 16.0 0.00 0.20 0.00 38 1006.8
20260507190056 56 0 0.0 4.0 0.00 0.20 0.00 41 1007.0
20260507184606 55 209 1.0 12.0 0.00 0.23 0.00 37 1007.2
20260507183100 57 0 0.0 4.0 0.00 0.23 0.00 43 1007.4
20260507181603 56 0 0.0 6.0 0.00 0.23 0.00 40 1007.5
20260507180106 56 0 0.0 8.0 0.00 0.23 0.00 41 1007.6
20260507174606 55 0 2.0 12.0 0.00 0.38 0.00 43 1007.7
20260507173058 55 0 0.0 11.0 0.00 0.38 0.00 41 1007.7
20260507171609 55 220 3.0 11.0 0.00 0.38 0.00 43 1007.9
20260507170103 56 187 1.0 18.0 0.00 0.38 0.00 39 1007.9
20260507164558 55 148 6.0 13.0 0.00 0.47 0.00 39 1008.1
20260507163057 55 0 0.0 9.0 0.00 0.47 0.00 42 1008.5
20260507161554 55 0 0.0 12.0 0.00 0.47 0.00 46 1008.6
20260507160058 55 0 0.0 10.0 0.00 0.47 0.00 39 1008.6
20260507154601 54 0 1.0 9.0 0.00 0.58 0.00 44 1008.9
20260507153058 54 0 2.0 10.0 0.00 0.58 0.00 42 1009.0
20260507151550 54 0 0.0 10.0 0.00 0.58 0.00 43 1009.2
20260507150053 54 0 0.0 5.0 0.00 0.58 0.00 46 1009.2
20260507144552 53 189 2.0 10.0 0.00 0.69 0.00 45 1009.2
20260507143054 53 276 0.0 3.0 0.00 0.69 0.00 53 1009.2
20260507141555 52 0 0.0 4.0 0.00 0.69 0.00 48 1009.2
20260507140051 51 78 0.0 11.0 0.00 0.69 0.00 50 1009.3
20260507134553 49 169 0.0 12.0 0.00 0.76 0.00 58 1009.6
20260507133056 48 224 0.0 8.0 0.00 0.76 0.00 58 1009.5
20260507131602 48 0 0.0 7.0 0.00 0.76 0.00 62 1009.6
20260507130106 47 92 0.0 8.0 0.00 0.76 0.00 65 1009.6
20260507124554 47 287 0.0 10.0 0.00 0.83 0.00 64 1009.3
20260507123053 46 0 0.0 9.0 0.00 0.83 0.00 67 1009.4
20260507121604 46 0 0.0 3.0 0.00 0.83 0.00 69 1009.5
20260507120057 44 0 0.0 3.0 0.00 0.83 0.00 73 1009.5
20260507114614 45 0 0.0 6.0 0.00 0.85 0.00 70 1009.1
20260507113058 45 49 0.0 7.0 0.00 0.85 0.00 71 1008.8
20260507111554 45 50 0.0 0.0 0.00 0.85 0.00 72 1008.7
20260507110053 44 0 0.0 0.0 0.00 0.85 0.00 80 1008.8
20260507104552 43 0 0.0 0.0 0.00 0.86 0.00 90 1008.5
20260507103054 42 0 0.0 0.0 0.00 0.86 0.00 90 1008.3
20260507101603 43 0 0.0 0.0 0.00 0.86 0.00 88 1008.1
20260507100054 44 0 0.0 0.0 0.00 0.86 0.00 86 1008.2
20260507094549 45 0 0.0 0.0 0.00 0.86 0.00 86 1008.3
20260507093056 45 0 0.0 0.0 0.00 0.86 0.00 88 1008.0
20260507091556 45 0 0.0 0.0 0.00 0.86 0.00 89 1008.0
20260507090054 45 0 0.0 0.0 0.00 0.86 0.00 89 1008.0
20260507084551 45 0 0.0 0.0 0.00 0.86 0.00 89 1008.3
20260507083051 45 0 0.0 0.0 0.00 0.86 0.00 88 1008.2
20260507081554 45 0 0.0 3.0 0.00 0.86 0.00 89 1008.3
20260507080053 45 0 0.0 0.0 0.00 0.86 0.00 87 1007.9
20260507074609 46 0 0.0 0.0 0.00 0.86 0.00 86 1007.9
20260507073054 45 0 0.0 0.0 0.00 0.86 0.00 87 1008.2
20260507071553 45 0 0.0 4.0 0.00 0.86 0.00 90 1007.8
20260507070050 45 0 0.0 0.0 0.00 0.86 0.00 93 1007.8
20260507064554 45 0 0.0 0.0 0.00 0.87 0.00 93 1007.9
20260507063053 45 0 0.0 2.0 0.00 0.87 0.00 92 1007.7
20260507061556 45 0 0.0 0.0 0.00 0.87 0.00 92 1007.9
20260507060053 45 0 0.0 0.0 0.00 0.87 0.00 93 1007.9
20260507054633 45 0 0.0 0.0 0.00 0.87 0.00 93 1007.9
20260507053054 45 275 0.0 7.0 0.00 0.87 0.00 94 1008.1
20260507051552 45 0 0.0 4.0 0.00 0.87 0.00 95 1008.2
20260507050057 45 0 0.0 0.0 0.00 0.87 0.00 95 1008.3
20260507044556 45 0 0.0 0.0 0.00 0.89 0.00 95 1008.3
20260507043049 45 0 0.0 5.0 0.00 0.89 0.00 95 1008.4
20260507041559 44 0 0.0 0.0 0.00 0.89 0.00 95 1008.7
20260507040054 44 0 0.0 0.0 0.00 0.89 0.00 96 1008.2
20260507034557 44 0 0.0 4.0 0.00 0.89 0.89 96 1008.7
20260507033101 44 0 0.0 0.0 0.01 0.89 0.89 96 1008.6
20260507031606 44 0 0.0 0.0 0.01 0.89 0.89 96 1008.7
20260507030057 44 0 0.0 0.0 0.01 0.89 0.89 96 1008.8
20260507024555 44 0 0.0 0.0 0.01 0.89 0.89 96 1008.7
20260507023104 44 0 0.0 0.0 0.00 0.88 0.88 96 1008.9
20260507021557 44 0 0.0 0.0 0.00 0.88 0.88 96 1008.8
20260507020055 44 0 0.0 0.0 0.01 0.88 0.88 96 1009.1
20260507014603 44 0 0.0 0.0 0.01 0.88 0.88 96 1009.2
20260507013050 44 0 0.0 0.0 0.03 0.88 0.88 96 1009.1
20260507011552 44 0 0.0 0.0 0.04 0.88 0.88 96 1008.9
20260507010049 44 0 0.0 0.0 0.04 0.87 0.87 96 1009.0
20260507004554 44 0 0.0 0.0 0.04 0.87 0.87 96 1008.8
20260507003055 44 0 0.0 0.0 0.04 0.85 0.85 96 1008.8
20260507001602 44 0 0.0 0.0 0.03 0.84 0.84 96 1008.4
20260507000052 44 0 0.0 0.0 0.03 0.83 0.83 96 1008.1
20260506234548 44 0 0.0 0.0 0.03 0.83 0.83 96 1007.7
20260506233107 44 0 0.0 0.0 0.02 0.81 0.81 96 1007.5
20260506231550 44 0 0.0 0.0 0.05 0.81 0.81 96 1007.4
20260506230051 44 0 0.0 0.0 0.05 0.80 0.80 96 1007.2
20260506224553 44 0 0.0 0.0 0.06 0.80 0.80 95 1007.2
20260506223052 44 0 0.0 0.0 0.06 0.79 0.79 96 1007.1
20260506221550 44 0 0.0 0.0 0.03 0.76 0.76 95 1007.0
20260506220052 44 0 0.0 0.0 0.02 0.75 0.75 95 1006.9
20260506214552 44 0 0.0 0.0 0.02 0.75 0.74 95 1006.8
20260506213105 44 0 0.0 0.0 0.01 0.74 0.73 95 1006.6
20260506211552 44 0 0.0 0.0 0.02 0.74 0.73 95 1006.5
20260506210055 44 0 0.0 0.0 0.02 0.74 0.73 95 1006.4
20260506204551 44 0 0.0 0.0 0.02 0.73 0.72 95 1006.5
20260506203056 44 0 0.0 0.0 0.02 0.73 0.72 95 1006.2
20260506201555 44 0 0.0 0.0 0.02 0.72 0.71 95 1006.3
20260506200054 44 0 0.0 0.0 0.02 0.72 0.71 95 1006.2
20260506194621 44 0 0.0 0.0 0.02 0.77 0.70 95 1006.4
20260506193103 44 0 0.0 0.0 0.03 0.77 0.70 95 1006.4